FW6774 Weather Reports


time (UTC)temp
C
wind
direction
speed
KPH
gust
KPH
rain 1hr
cm
rain 24hr
cm
rain mn
cm
humidity
%
barometer
mb
20260504020038 19 302 3.2 8.0 0.00 0.61 0.00 59 1011.6
20260504014537 18 300 0.0 8.0 0.00 0.61 0.00 64 1011.8
20260504013034 18 309 4.8 11.3 0.00 0.61 0.00 63 1012.2
20260504011530 18 326 6.4 9.7 0.00 0.61 0.00 65 1012.3
20260504010029 18 328 0.0 1.6 0.00 0.61 0.00 70 1012.5
20260504004539 17 345 0.0 3.2 0.00 0.61 0.00 73 1012.7
20260504003025 17 276 0.0 3.2 0.00 0.61 0.00 72 1012.5
20260504001525 17 319 0.0 4.8 0.00 0.61 0.00 69 1012.5
20260504000022 17 277 1.6 8.0 0.00 0.61 0.00 71 1012.5
20260503234519 17 321 0.0 4.8 0.00 0.61 0.00 73 1012.6
20260503233016 16 309 0.0 4.8 0.00 0.61 0.00 76 1012.7
20260503231512 16 55 1.6 4.8 0.00 0.61 0.00 77 1013.0
20260503230009 16 317 0.0 3.2 0.00 0.61 0.00 81 1012.8
20260503224507 15 288 0.0 4.8 0.00 0.61 0.00 84 1012.8
20260503223002 13 217 1.6 9.7 0.00 0.61 0.00 89 1012.5
20260503221600 12 269 0.0 3.2 0.00 0.61 0.00 94 1012.6
20260503214600 10 39 0.0 0.0 0.00 0.61 0.00 94 1012.8
20260503213058 10 38 0.0 0.0 0.00 0.61 0.00 93 1012.8
20260503211557 10 38 0.0 0.0 0.00 0.61 0.00 93 1012.2
20260503210054 10 38 0.0 0.0 0.00 0.61 0.00 93 1012.1
20260503204552 10 38 0.0 0.0 0.00 0.61 0.00 93 1012.0
20260503203049 11 39 0.0 0.0 0.00 0.61 0.00 93 1011.7
20260503201547 11 39 0.0 0.0 0.00 0.61 0.00 93 1011.5
20260503200051 11 39 0.0 0.0 0.00 0.61 0.00 94 1011.4
20260503194545 11 26 0.0 3.2 0.00 0.61 0.00 95 1010.9
20260503193048 11 20 0.0 0.0 0.00 0.61 0.00 95 1011.2
20260503191543 11 108 0.0 3.2 0.00 0.61 0.00 95 1011.3
20260503190044 11 269 0.0 0.0 0.00 0.61 0.00 95 1010.9
20260503184541 11 201 0.0 0.0 0.00 0.61 0.00 95 1011.0
20260503183053 11 202 0.0 0.0 0.00 0.61 0.00 95 1011.0
20260503181540 12 202 0.0 1.6 0.00 0.61 0.00 95 1010.8
20260503180036 12 250 0.0 0.0 0.00 0.61 0.00 95 1010.9
20260503174536 12 250 0.0 1.6 0.00 0.61 0.00 95 1010.7
20260503173030 13 262 0.0 1.6 0.00 0.61 0.00 95 1010.6
20260503171527 13 134 0.0 0.0 0.00 0.61 0.00 96 1010.8
20260503090110 15 176 0.0 0.0 0.00 0.20 0.20 93 1012.6
20260503081557 16 176 0.0 0.0 0.03 0.20 0.20 92 1012.3
20260503080105 16 120 0.0 0.0 0.05 0.20 0.20 92 1012.3
20260503071604 17 298 0.0 0.0 0.18 0.18 0.18 91 1012.7
20260503070111 17 280 0.0 0.0 0.15 0.15 0.15 90 1012.9
20260503060113 18 286 0.0 11.3 0.00 0.00 0.00 88 1012.3
20260503054554 18 45 4.8 12.9 0.00 0.00 0.00 87 1012.2
20260503053050 18 335 6.4 16.1 0.00 0.00 0.00 87 1012.3
20260503051552 18 65 8.0 16.1 0.00 0.00 0.00 86 1012.5
20260503050049 18 41 6.4 16.1 0.00 0.00 0.00 85 1012.3
20260503044547 19 62 6.4 12.9 0.00 0.00 0.00 83 1012.5
20260503043047 19 308 1.6 6.4 0.00 0.00 0.00 83 1012.4
20260503041544 20 36 1.6 6.4 0.00 0.00 0.00 82 1012.5
20260503040043 20 56 3.2 9.7 0.00 0.00 0.00 82 1012.8
20260503034541 20 23 3.2 12.9 0.00 0.00 0.00 83 1013.0
20260503033046 20 321 4.8 16.1 0.00 0.00 0.00 82 1013.4
20260503031538 20 92 6.4 17.7 0.00 0.00 0.00 82 1013.5
20260503030034 20 2 6.4 16.1 0.00 0.00 0.00 81 1013.7
20260503024531 19 75 4.8 9.7 0.00 0.00 0.00 81 1014.3
20260503023028 20 87 8.0 14.5 0.00 0.00 0.00 78 1014.5
20260503021527 20 58 1.6 8.0 0.00 0.00 0.00 78 1014.7